Regional Weather Roundup
Issued by NWS Northern Indiana

Home | Current Version | Previous Version | Graphics & Text | Print | Product List | Glossary On
Versions: 1 2 3 4 5 6 7 8 9 10 11 12 13 14 15 16 17 18 19 20 21 22 23 24 25 26 27 28 29 30 31 32 33 34 35 36 37 38 39 40 41 42 43 44 45 46 47 48 49 50
000
ASUS43 KIWX 070600
RWRIWX

KIWX WEATHER ROUNDUP
NATIONAL WEATHER SERVICE NORTHERN INDIANA
100 AM EST SUN FEB 07 2016

NOTE: "FAIR" INDICATES FEW OR NO CLOUDS BELOW 12,000 FEET WITH NO
SIGNIFICANT WEATHER AND/OR OBSTRUCTIONS TO VISIBILITY.

* THESE STATIONS ARE NOT UNDER NWS QUALITY CONTROL. THEY ALSO MAY NOT
  REPORT WEATHER SUCH AS PRECIPITATION OR FOG.

INZ001>027-070700-
NORTHERN INDIANA

CITY           SKY/WX    TMP DP  RH WIND       PRES   REMARKS
SOUTH BEND     CLEAR     31  26  82 S8        30.08F WCI  23
6HR MIN TEMP:  29; 6HR MAX TEMP:  34;

GOSHEN         CLEAR     33  26  75 S8        30.08F WCI  26
6HR MIN TEMP:  33; 6HR MAX TEMP:  35;

FORT WAYNE     CLEAR     32  25  75 S9        30.12F WCI  24
6HR MIN TEMP:  29; 6HR MAX TEMP:  32;

PERU/GRISSOM   CLEAR     31  27  83 S8        30.10F WCI  24
6HR MIN TEMP:  30; 6HR MAX TEMP:  34;


$$
INZ028>050-070700-
CENTRAL INDIANA

CITY           SKY/WX    TMP DP  RH WIND       PRES   REMARKS
LAFAYETTE      CLEAR     34  25  69 SW5       30.12F WCI  30
6HR MIN TEMP:  28; 6HR MAX TEMP:  39;

KOKOMO*          N/A     34  27  75 S10       30.12F WCI  26
6HR MIN TEMP:  30; 6HR MAX TEMP:  34;

MUNCIE*        CLEAR     36  25  64 S9        30.14F
6HR MIN TEMP:  35; 6HR MAX TEMP:  38;

INDIANAPOLIS   CLEAR     33  23  66 S9        30.14F WCI  25
6HR MIN TEMP:  33; 6HR MAX TEMP:  40;


$$
MIZ043>046-050>051-056>058-064>065-071>073-077>080-070700-
SOUTHWEST LOWER MICHIGAN

CITY           SKY/WX    TMP DP  RH WIND       PRES   REMARKS
BATTLE CREEK   CLOUDY    32  27  81 S9        30.06F WCI  24
6HR MIN TEMP:  30; 6HR MAX TEMP:  34;

BENTON HARBOR  PTCLDY    35  28  75 S7        30.06F WCI  29
6HR MIN TEMP:  32; 6HR MAX TEMP:  36;

COLDWATER*     PTCLDY    32  26  79 S6        30.08F WCI  27
6HR MIN TEMP:  32; 6HR MAX TEMP:  34;

HILLSDALE*     CLEAR     30  26  83 S7        30.08F WCI  23
6HR MIN TEMP:  30; 6HR MAX TEMP:  33;

HOLLAND        PTCLDY    32  28  85 S7        30.04F WCI  26
6HR MIN TEMP:  30; 6HR MAX TEMP:  34;

GRAND RAPIDS   CLOUDY    33  27  78 S8        30.04F WCI  26
6HR MIN TEMP:  31; 6HR MAX TEMP:  34;

KALAMAZOO      CLOUDY    31  26  82 S7        30.06F WCI  24
6HR MIN TEMP:  29; 6HR MAX TEMP:  35;

STURGIS*       PTCLDY    30  26  84 S6        30.07F WCI  24
6HR MIN TEMP:  29; 6HR MAX TEMP:  33;

THREE RIVERS*  FAIR      28  26  91 S5        30.08F WCI  23

$$
OHZ001>008-015>018-024>025-070700-
NORTHWEST OHIO

CITY           SKY/WX    TMP DP  RH WIND       PRES   REMARKS
DEFIANCE       CLEAR     31  24  75 S5        30.13F WCI  26
6HR MIN TEMP:  30; 6HR MAX TEMP:  35;

FINDLAY        CLEAR     29  22  75 S8        30.14F WCI  21
6HR MIN TEMP:  27; 6HR MAX TEMP:  33;

TOLEDO EXPRESS CLOUDY    29  23  78 S5        30.13F WCI  24
6HR MIN TEMP:  25; 6HR MAX TEMP:  33;

TOLEDO METCALF CLOUDY    27  22  81 S8        30.14F WCI  19
6HR MIN TEMP:  27; 6HR MAX TEMP:  33;

LIMA           CLEAR     32  24  72 S9        30.14F WCI  24
6HR MIN TEMP:  32; 6HR MAX TEMP:  34;


$$
AND FOR LAKE MICHIGAN COASTAL AND OPEN LAKE BUOY OBSERVATIONS

STATION/POSITION TEMP    WIND        PRES    VSBY  WAVE
                 AIR SEA DIR/SP/G                  HT/PER
                 (F)     (DEG/KT/KT) (MB)    (MI)  (FT/S)
CALUMET HARBOR    35     180/  5/  9 1017.5F
MICHIGAN CITY     37     150/ 15/ 18   N/A
BURNS HARBOR      35     180/ 10/ 12 1019.0F
SAINT JOSEPH      35     140/  6/ 11 1018.6F

$$
&&



USA.gov is the U.S. government's official web portal to all federal, state and local government web resources and services.